Regional Weather Roundup
Issued by NWS

Home | Current Version | Previous Version | Graphics & Text | Print | Product List | Glossary Off
Versions: 1 2 3 4 5 6 7 8 9 10 11 12 13 14 15 16 17 18 19 20 21 22 23 24 25 26 27 28 29 30 31 32 33 34 35 36 37 38 39 40 41 42 43 44 45 46 47 48 49 50

000
ASUS43 KMKX 180900
RWRWI

WISCONSIN REGIONAL WEATHER ROUNDUP
NATIONAL WEATHER SERVICE MILWAUKEE/SULLIVAN WI
400 AM CDT FRI AUG 18 2017

NOTE: "FAIR" INDICATES FEW OR NO CLOUDS BELOW 12,000 FEET WITH NO
SIGNIFICANT WEATHER AND/OR OBSTRUCTIONS TO VISIBILITY.

WIZ001-002-006>008-014>016-023>028-181000-
NORTHWEST WISCONSIN

CITY           SKY/WX    TMP DP  RH WIND       PRES   REMARKS
SUPERIOR ARPT    N/A     58  57  99 W5        29.83R
ASHLAND        CLOUDY    61  59  93 W7        29.78R
HAYWARD        CLOUDY    60  57  89 VRB5      29.82R
SIREN          CLEAR     56  55  95 W3        29.85S
CUMBERLAND     CLEAR     55  55 100 NW7       29.84S
RICE LAKE      CLEAR     58  57  96 W8        29.85R
CHETEK         MOCLDY    60  58  94 NW7       29.83R
LADYSMITH      CLOUDY    62  59  88 W10       29.81R
EAU CLAIRE     NOT AVBL
MENOMONIE      CLEAR     62  60  93 W6        29.83S
NEW RICHMOND   CLEAR     57  56  97 W5        29.85S
OSCEOLA        CLEAR     58  58 100 CALM      29.88S
$$

WIZ003>005-009-010-017-018-181000-
NORTH CENTRAL WISCONSIN

CITY           SKY/WX    TMP DP  RH WIND       PRES   REMARKS
MANITOWISH WTR DRIZZLE   59  59 100 NW12      29.73S
ARBOR VITAE    CLOUDY    60  58  95 NW9       29.72S FOG
WOODRUFF       CLOUDY    60  58  95 NW9       29.72S FOG
RHINELANDER    CLOUDY    60  60 100 NW8       29.73R
EAGLE RIVER    DRIZZLE   59  59 100 NW14      29.70S
LAND O LAKES   DRIZZLE   60  59  98 NW9       29.71S
PHILLIPS       CLOUDY    60  59  98 W6        29.77R
TOMAHAWK         N/A     60  57  91 W6        29.74S
MEDFORD        CLOUDY    60  58  94 NW8       29.77R
MERRILL        NOT AVBL
$$

WIZ029-030-035-036-043>047-181000-
CENTRAL WISCONSIN

CITY           SKY/WX    TMP DP  RH WIND       PRES   REMARKS
WAUSAU         CLOUDY    62  59  90 NW13      29.73R
MOSINEE        CLOUDY    61  59  94 W14       29.75S
MARSHFIELD     CLOUDY    62  58  86 W10       29.78R
STEVENS POINT  CLOUDY    61  61 100 W9        29.75S
WAUPACA        CLOUDY    66  62  86 W10       29.73R
WAUTOMA        CLOUDY    65  61  87 W10       29.76S
WISC RAPIDS    CLOUDY    63  61  93 W12       29.79R
CAMP DOUGLAS   MOCLDY    64  60  87 W7        29.80R
$$

WIZ011>013-019>022-031-037>040-048>050-181000-
NORTHEAST WISCONSIN

CITY           SKY/WX    TMP DP  RH WIND       PRES   REMARKS
ANTIGO         CLOUDY    60  59  98 W13       29.71S
SHAWANO        CLEAR     64  59  83 W9        29.68R
OCONTO         CLOUDY    63  59  88 W12G17    29.63S
STURGEON BAY   CLOUDY    64  60  87 W16       29.63S
GREEN BAY      CLEAR     62  61  96 W12       29.67S
MANITOWOC      NOT AVBL
APPLETON       MOCLDY    63  57  82 W13G18    29.69S
CLINTONVILLE   MOCLDY    63  59  88 W13       29.69S
OSHKOSH        CLOUDY    64  61  90 W9        29.71S
$$

WIZ032>034-041-042-053>061-181000-
SOUTHWEST WISCONSIN

CITY           SKY/WX    TMP DP  RH WIND       PRES   REMARKS
LA CROSSE      CLOUDY    69  61  75 N7        29.81F
SPARTA         CLOUDY    64  59  81 NW10      29.82R
VIROQUA        CLOUDY    62  62 100 W3        29.83S
BOSCOBEL       PTCLDY    66  62  87 SW5       29.82S
PRAIRIE DU CHI MOCLDY    65  60  83 W6        29.83R
PLATTEVILLE    CLEAR     63  63 100 W5        29.83S
$$

WIZ056-057-062-063-064-067-068-181000-
SOUTH CENTRAL WISCONSIN

CITY           SKY/WX    TMP DP  RH WIND       PRES   REMARKS
REEDSBURG      CLOUDY    65  60  85 NW9       29.80R
BARABOO/DELLS  CLOUDY    65  60  83 W7        29.79S
LONE ROCK      PTCLDY    64  63  96 W6        29.80S
MINERAL POINT  CLEAR     64  64 100 W6        29.82S
MADISON        CLOUDY    65  62  90 W5        29.78S
MIDDLETON      PTCLDY    65  65  98 W7        29.80S
WATERTOWN      CLOUDY    65  64  93 W8        29.76S
MONROE         PTCLDY    64  63  94 W7        29.80F
JANESVILLE     MOCLDY    64  64 100 NW9G16    29.78S
$$

WIZ051-052-058>065-066-070>072-181000-
SOUTHEAST WISCONSIN

CITY           SKY/WX    TMP DP  RH WIND       PRES   REMARKS
MILWAUKEE      CLOUDY    69  61  75 W10       29.74R
WAUKESHA       CLOUDY    63  59  88 W15       29.76S
MILWAUKEE/TIMM CLOUDY    64  57  77 W9G18     29.74S
RACINE         MOCLDY    67  62  84 W8        29.76S
KENOSHA        PTCLDY    65  61  87 W9        29.76R
FOND DU LAC    CLOUDY    66  60  81 W12       29.73S
SHEBOYGAN      MOCLDY    66  62  87 W9        29.69R
WEST BEND      CLOUDY    64  61  88 W10G17    29.72S
JUNEAU         CLOUDY    64  61  88 W7        29.76S
$$

LSZ147-162-181000-
LAKE SUPERIOR

STATION/POSITION TIME  TEMP    WIND        PRES    WAVE
                       AIR SEA DIR/SP/G            HT/PER
                 (UTC) (F)     (DEG/KT/KT) (MB)    (FT/S)
W MID LAKE BUOY  0750   61 59  310/ 12/ 14 1004.9S   3/ 6
DEVILS ISLAND    0800   62     310/ 15/ 16 1006.8R
SAXON HARBOR     0840   64     300/ 13/ 15 1006.8R
$$

LMZ867-665-643>646-181000-
LAKE MICHIGAN

STATION/POSITION TIME  TEMP    WIND        PRES    WAVE
                       AIR SEA DIR/SP/G            HT/PER
                 (UTC) (F)     (DEG/KT/KT) (MB)    (FT/S)
S GREEN BAY BUOY 0830   66 71  250/ 16/ 21 1003.4R
N MID LAKE BUOY  0750   65 67  270/ 21/ 25 1000.5R   4/ 6
NORTHPORT PIER   0840   65     290/ 10/ 17 1001.7F
KEWAUNEE LAKESHO 0830   66     280/  8/ 15 1003.0R
SHEBOYGAN LAKESH 0800   67     280/ 14/ 19 1004.7R
PORT WASHINGTON  0840   68     270/  9/ 12 1007.1S
ATWATER BUOY     0709   69 69  260/ 14/ 17 1006.8R
MILWAUKEE LAKESH 0830   68     290/ 14/ 18   N/A
S MID LAKE BUOY  0750   70 71  310/ 19/ 23 1006.1R   4/ 5
KENOSHA   LAKESH 0800   68     270/  8/ 15 1007.5
$$

TC  - TEMPERATURE IN CELSIUS
VSB - VISIBILITY IN STATUTE MILES
WCI - WIND CHILL INDEX
HX  - HEAT INDEX




USA.gov is the U.S. government's official web portal to all federal, state and local government web resources and services.